Location: doobydoo
(53.3403°N, 2.6908°W)
Time: 14:20:11
(UTC+00:00)

ISS - Pass Details

Date: 28 December 2021
Orbit: 413 x 422 km, 51.6° (Epoch: 19 January)

Event Time Altitude Azimuth Distance (km) Brightness Sun altitude
Exits shadow 05:56:48 62° 175° (S) 481 -3.5 -20.7°
Maximum altitude 05:56:49 62° 173° (S) 481 -3.5 -20.7°
Drops below altitude 10° 06:00:11 10° 91° (E) 1,513 0.2 -20.2°
Sets 06:02:18 0° 88° (E) 2,380 1.5 -19.9°
